Quakertown, PA

8:40 AM EDT on May 27, 2018 (GMT -0400)
Quakertown

Weather History for KUKT - November, 2013

Change the Weather History Date:

Tuesday, November 5, 2013

  Actual Average (KABE) Record (KABE)
Temperature  
Mean Temperature 42 °F -  
Max Temperature 55 °F 55 °F 75 °F (1994)
Min Temperature 28 °F 37 °F 22 °F (1952)
Degree Days  
Heating Degree Days 24    
Moisture  
Dew Point 34 °F    
Average Humidity 74    
Maximum Humidity 93    
Minimum Humidity 54    
Precipitation  
Precipitation 0.00 in - - ()
Sea Level Pressure  
Sea Level Pressure 30.58 in    
Wind  
Wind Speed 1 mph (SE)    
Max Wind Speed 8 mph    
Max Gust Speed -    
Visibility 10 miles    
Events      
Averages and records for this station are not official NWS values.
T = Trace of Precipitation, MM = Missing Value Source: NWS Daily Summary

Daily Weather History Graph

Daily Weather History Graph

Search for Another Location

Airport or City:

Astronomy

Nov. 05, 2013 Rise Set
Actual Time 6:36 AM EST 4:53 PM EST
Civil Twilight 6:07 AM EST 5:22 PM EST
Nautical Twilight 5:35 AM EST 5:54 PM EST
Astronomical Twilight 5:03 AM EST 6:26 PM EST
Moon 8:49 AM EST (11/5) 6:52 PM EST (11/5)
Length of Visible Light 11h 14m
Length of Day
10h 17m
Waxing Crescent, 6% of the Moon is Illuminated
Nov 5
Waxing Crescent
Nov 10
First Quarter
Nov 17
Full
Nov 25
Last Quarter
Dec 2
New

Hourly Weather History & Observations

Time (EST) Temp. Windchill Dew Point Humidity Pressure Visibility Wind Dir Wind Speed Gust Speed Precip Events Conditions
12:15 AM 32.0 °F - 26.6 °F 80% 30.64 in 10.0 mi Calm Calm - N/A   Mostly Cloudy
12:35 AM 32.0 °F - 26.6 °F 80% 30.64 in 10.0 mi Calm Calm - N/A   Partly Cloudy
12:55 AM 32.0 °F - 26.6 °F 80% 30.63 in 10.0 mi Calm Calm - N/A   Clear
1:15 AM 32.0 °F - 26.6 °F 80% 30.62 in 10.0 mi Calm Calm - N/A   Clear
1:35 AM 30.2 °F - 24.8 °F 80% 30.61 in 10.0 mi Calm Calm - N/A   Clear
1:55 AM 30.2 °F - 26.6 °F 86% 30.61 in 10.0 mi Calm Calm - N/A   Clear
2:15 AM 30.2 °F - 26.6 °F 86% 30.60 in 10.0 mi Calm Calm - N/A   Clear
2:35 AM 30.2 °F - 26.6 °F 86% 30.61 in 10.0 mi Calm Calm - N/A   Clear
2:55 AM 28.4 °F - 24.8 °F 86% 30.61 in 10.0 mi Calm Calm - N/A   Mostly Cloudy
3:15 AM 30.2 °F - 26.6 °F 86% 30.61 in 10.0 mi Calm Calm - N/A   Overcast
3:35 AM 32.0 °F - 26.6 °F 80% 30.61 in 10.0 mi Calm Calm - N/A   Overcast
3:55 AM 32.0 °F - 26.6 °F 80% 30.61 in 10.0 mi Calm Calm - N/A   Overcast
4:15 AM 32.0 °F - 28.4 °F 87% 30.61 in 10.0 mi Calm Calm - N/A   Mostly Cloudy
4:35 AM 32.0 °F - 28.4 °F 87% 30.61 in 10.0 mi Calm Calm - N/A   Scattered Clouds
4:55 AM 32.0 °F - 26.6 °F 80% 30.62 in 10.0 mi Calm Calm - N/A   Mostly Cloudy
5:15 AM 33.8 °F - 26.6 °F 75% 30.62 in 10.0 mi Calm Calm - N/A   Mostly Cloudy
5:35 AM 32.0 °F - 28.4 °F 87% 30.62 in 10.0 mi Calm Calm - N/A   Mostly Cloudy
5:55 AM 32.0 °F - 28.4 °F 87% 30.62 in 10.0 mi Calm Calm - N/A   Mostly Cloudy
6:15 AM 32.0 °F - 28.4 °F 87% 30.61 in 10.0 mi Calm Calm - N/A   Mostly Cloudy
6:35 AM 35.6 °F - 26.6 °F 70% 30.62 in 10.0 mi Calm Calm - N/A   Partly Cloudy
6:55 AM 32.0 °F - 28.4 °F 87% 30.62 in 10.0 mi Calm Calm - N/A   Clear
7:15 AM 35.6 °F - 30.2 °F 81% 30.62 in 10.0 mi Calm Calm - N/A   Clear
7:35 AM 35.6 °F - 28.4 °F 75% 30.62 in 10.0 mi Calm Calm - N/A   Partly Cloudy
7:55 AM 37.4 °F - 30.2 °F 75% 30.62 in 10.0 mi Calm Calm - N/A   Mostly Cloudy
8:15 AM 39.2 °F - 30.2 °F 70% 30.62 in 10.0 mi Calm Calm - N/A   Overcast
8:35 AM 39.2 °F 37.0 °F 32.0 °F 75% 30.63 in 10.0 mi ENE 3.5 mph - N/A   Overcast
8:55 AM 41.0 °F 39.0 °F 32.0 °F 70% 30.64 in 10.0 mi ENE 3.5 mph - N/A   Overcast
9:15 AM 42.8 °F 41.1 °F 32.0 °F 66% 30.63 in 10.0 mi East 3.5 mph - N/A   Overcast
9:35 AM 44.6 °F 43.1 °F 32.0 °F 61% 30.63 in 10.0 mi East 3.5 mph - N/A   Overcast
9:55 AM 46.4 °F 43.5 °F 33.8 °F 62% 30.63 in 10.0 mi East 5.8 mph - N/A   Overcast
10:15 AM 48.2 °F - 35.6 °F 62% 30.63 in 10.0 mi ESE 5.8 mph - N/A   Overcast
10:35 AM 50.0 °F - 37.4 °F 62% 30.63 in 10.0 mi ESE 8.1 mph - N/A   Mostly Cloudy
10:55 AM 50.0 °F - 37.4 °F 62% 30.62 in 10.0 mi ESE 8.1 mph - N/A   Mostly Cloudy
11:15 AM 50.0 °F - 37.4 °F 62% 30.62 in 10.0 mi ESE 6.9 mph - N/A   Mostly Cloudy
11:35 AM 51.8 °F - 37.4 °F 58% 30.61 in 10.0 mi SE 4.6 mph - N/A   Overcast
11:55 AM 51.8 °F - 39.2 °F 62% 30.60 in 10.0 mi SSE 5.8 mph - N/A   Overcast
12:15 PM 53.6 °F - 39.2 °F 58% 30.59 in 10.0 mi SSE 4.6 mph - N/A   Overcast
12:35 PM 53.6 °F - 39.2 °F 58% 30.59 in 10.0 mi SSE 5.8 mph - N/A   Overcast
12:55 PM 53.6 °F - 39.2 °F 58% 30.58 in 10.0 mi South 3.5 mph - N/A   Mostly Cloudy
1:15 PM 53.6 °F - 39.2 °F 58% 30.57 in 10.0 mi SSE 4.6 mph - N/A   Overcast
1:35 PM 55.4 °F - 39.2 °F 54% 30.57 in 10.0 mi SSE 6.9 mph - N/A   Overcast
1:55 PM 55.4 °F - 39.2 °F 54% 30.56 in 10.0 mi SSE 5.8 mph - N/A   Partly Cloudy
2:15 PM 53.6 °F - 39.2 °F 58% 30.55 in 10.0 mi South 4.6 mph - N/A   Clear
2:35 PM 55.4 °F - 39.2 °F 54% 30.54 in 10.0 mi SSE 5.8 mph - N/A   Mostly Cloudy
2:55 PM 55.4 °F - 39.2 °F 54% 30.54 in 10.0 mi South 4.6 mph - N/A   Partly Cloudy
3:15 PM 55.4 °F - 39.2 °F 54% 30.54 in 10.0 mi South 3.5 mph - N/A   Partly Cloudy
3:35 PM 55.4 °F - 39.2 °F 54% 30.54 in 10.0 mi SSW 4.6 mph - N/A   Mostly Cloudy
3:55 PM 53.6 °F - 39.2 °F 58% 30.54 in 10.0 mi South 3.5 mph - N/A   Partly Cloudy
4:15 PM 53.6 °F - 39.2 °F 58% 30.53 in 10.0 mi Calm Calm - N/A   Clear
4:35 PM 53.6 °F - 39.2 °F 58% 30.52 in 10.0 mi Calm Calm - N/A   Clear
4:55 PM 53.6 °F - 39.2 °F 58% 30.52 in 10.0 mi Calm Calm - N/A   Clear
5:15 PM 50.0 °F - 39.2 °F 66% 30.52 in 10.0 mi Calm Calm - N/A   Clear
5:35 PM 48.2 °F - 39.2 °F 71% 30.52 in 10.0 mi Calm Calm - N/A   Clear
5:55 PM 46.4 °F - 39.2 °F 76% 30.52 in 10.0 mi Calm Calm - N/A   Clear
6:15 PM 44.6 °F - 39.2 °F 81% 30.53 in 10.0 mi Calm Calm - N/A   Clear
6:35 PM 42.8 °F - 37.4 °F 81% 30.53 in 10.0 mi Calm Calm - N/A   Partly Cloudy
6:55 PM 42.8 °F - 37.4 °F 81% 30.54 in 10.0 mi Calm Calm - N/A   Mostly Cloudy
7:15 PM 42.8 °F - 37.4 °F 81% 30.54 in 10.0 mi Calm Calm - N/A   Overcast
7:35 PM 41.0 °F - 37.4 °F 87% 30.54 in 10.0 mi Calm Calm - N/A   Scattered Clouds
7:55 PM 41.0 °F - 37.4 °F 87% 30.54 in 10.0 mi Calm Calm - N/A   Partly Cloudy
8:15 PM 41.0 °F - 37.4 °F 87% 30.54 in 10.0 mi Calm Calm - N/A   Scattered Clouds
8:35 PM 42.8 °F - 37.4 °F 81% 30.53 in 10.0 mi Calm Calm - N/A   Mostly Cloudy
8:55 PM 42.8 °F - 39.2 °F 87% 30.53 in 10.0 mi Calm Calm - N/A   Mostly Cloudy
9:15 PM 42.8 °F - 39.2 °F 87% 30.52 in 10.0 mi Calm Calm - N/A   Mostly Cloudy
9:35 PM 44.6 °F - 39.2 °F 81% 30.51 in 10.0 mi Calm Calm - N/A   Scattered Clouds
9:55 PM 44.6 °F - 39.2 °F 81% 30.51 in 10.0 mi Calm Calm - N/A   Clear
10:15 PM 44.6 °F - 39.2 °F 81% 30.50 in 10.0 mi Calm Calm - N/A   Clear
10:35 PM 42.8 °F - 41.0 °F 93% 30.49 in 10.0 mi Calm Calm - N/A   Clear
10:55 PM 42.8 °F - 41.0 °F 93% 30.48 in 10.0 mi Calm Calm - N/A   Clear
11:15 PM 44.6 °F - 41.0 °F 87% 30.49 in 10.0 mi Calm Calm - N/A   Scattered Clouds
11:35 PM 41.0 °F - 39.2 °F 93% 30.49 in 10.0 mi North - - N/A   Partly Cloudy
11:55 PM 41.0 °F - 39.2 °F 93% 30.49 in 10.0 mi Calm Calm - N/A   Mostly Cloudy